User: anonymous   Login
Location: Unspecified
(0.0000°N, 0.0000°E)
Time: 12:27:09
(UTC+00:00)
Language:

Radcal - Orbit

View from above orbital plane
View from above orbital plane
View from above satellite
View from above satellite

Ground track
Ground track

The orbit data is extracted from the following two-line orbital elements,

1 22698U 93041A   21015.66098227  .00000046  00000-0  13779-4 0  9994
2 22698  89.5646 168.5964 0089318 174.6545 185.5623 14.23435691430686
Epoch (UTC): 15 January 2021 15:51:48
Eccentricity: 0.0089318
inclination: 89.5646°
perigee height: 749 km
apogee height: 878 km
right ascension of ascending node: 168.5964°
argument of perigee: 174.6545°
revolutions per day: 14.23435691
mean anomaly at epoch: 185.5623°
orbit number at epoch: 43068

The dashed part of the orbit path shows where the satellite is in the earth's shadow,  

DLR